Regional Weather Roundup
Issued by NWS Kansas City/Pleasant Hill, MO

Home | Current Version | Previous Version | Text Only | Print | Product List | Glossary On
Versions: 1 2 3 4 5 6 7 8 9 10 11 12 13 14 15 16 17 18 19 20 21 22 23 24 25 26 27 28 29 30 31 32 33 34 35 36 37 38 39 40 41 42 43 44 45 46 47 48 49 50
000
ASUS43 KEAX 242110
RWREAX

WEATHER ROUNDUP FOR EASTERN KANSAS AND NORTHWEST MISSOURI
NATIONAL WEATHER SERVICE KANSAS CITY/PLEASANT HILL MO
400 PM CDT WED AUG 24 2016

KSZ040-057-103>105-MOZ028-029-037-043-242200-
...KANSAS CITY METROPOLITAN AREA...

CITY           SKY/WX    TMP DP  RH WIND       PRES   REMARKS
K.C. INTL      PTSUNNY   83  69  62 SW12      30.00R
K.C. DOWNTOWN  SUNNY     87  71  58 W7        29.98S HX  93
LEES SUMMIT    MOSUNNY   88  69  53 VRB3      30.00F HX  92
OLATHE - IXD   MOSUNNY   88  72  58 S8        30.00F HX  94
OLATHE - OJC   PTSUNNY   86  71  60 S9        30.00S HX  91
LAWRENCE       MOSUNNY   86  72  62 CALM      29.99F HX  92

$$

MOZ001>008-011>017-020>025-030>033-038>040-044>046-053-054-242200-
...NORTHERN AND CENTRAL MISSOURI...

CITY           SKY/WX    TMP DP  RH WIND       PRES   REMARKS
ST. JOSEPH     CLOUDY    78  73  84 SW7       29.99R
MOSBY          PTCLDY    82  72  69 SW7       30.00R
WHITEMAN AFB   PTSUNNY   89  73  59 W5        29.99F HX  97
CLINTON        MOSUNNY   90  75  62 SW5       30.01S HX 100
SEDALIA        PTSUNNY   89  74  60 S9        30.02F HX  98
WARSAW         NOT AVBL
CHILLICOTHE      N/A     81  74  79 S6        30.01F
KIRKSVILLE     LGT RAIN  81  72  74 VRB6      30.02S

$$

MOZ041-047>049-056>058-063>065-088>090-097-242200-
...EASTERN AND SOUTHERN MISSOURI...

CITY           SKY/WX    TMP DP  RH WIND       PRES   REMARKS
ST. LOUIS INTL PTSUNNY   94  72  48 SW9       30.00F HX 102
SPIRIT OF STL  CLOUDY    93  75  55 SW12      29.98F HX 104
COLUMBIA       PTSUNNY   89  75  63 S9        30.01F HX  99
JEFFERSON CITY MOSUNNY   90  74  59 SW9       29.99F HX  99
ROLLA          MOSUNNY   88  75  65 S12       30.04F HX  97
OSAGE BEACH    PTSUNNY   90  75  61 SW7       30.03F HX 100
SPRINGFIELD    MOSUNNY   91  71  51 S13       30.04F HX  97
BRANSON        PTSUNNY   90  72  55 S5        30.09F HX  96
JOPLIN         SUNNY     94  69  44 S15G21    30.00F HX  99
WEST PLAINS    MOSUNNY   87  72  60 S9        30.10F HX  93

$$

IAZ060-094-KSZ022-034>040-054-083-096-NEZ052-066-093-242200-
...KANSAS...SOUTHEAST NEBRASKA AND IOWA...

CITY           SKY/WX    TMP DP  RH WIND       PRES   REMARKS
TOPEKA         MOSUNNY   85  70  60 SE6       29.99S
MANHATTAN      PTSUNNY   85  67  54 SW7       29.99R
EMPORIA        PTSUNNY   88  70  55 S9        29.97F HX  93
CHANUTE        MOSUNNY   93  72  50 S10       29.97F HX 101
WICHITA        PTSUNNY   91  66  43 SE6       29.95F HX  93
OMAHA          CLOUDY    75  62  64 NW7       30.02R
LINCOLN        LGT RAIN  72  63  73 NW8       30.06R
FALLS CITY     CLOUDY    80  72  76 SW7       30.00R
LAMONI         CLOUDY    78  71  79 SW7       30.00S
DES MOINES     CLOUDY    84  72  67 W9        29.96S

$$




USA.gov is the U.S. government's official web portal to all federal, state and local government web resources and services.